Regional Weather Roundup
Issued by NWS

Home | Current Version | Previous Version | Text Only | Print | Product List | Glossary Off
Versions: 1 2 3 4 5 6 7 8 9 10 11 12 13 14 15 16 17 18 19 20 21 22 23 24 25 26 27 28 29 30 31 32 33 34 35 36 37 38 39 40 41 42 43 44 45 46 47 48 49 50

619
ASUS43 KLMK 131102
RWRKY
KENTUCKY REGIONAL WEATHER ROUNDUP
NATIONAL WEATHER SERVICE LOUISVILLE KY
600 AM EST WED DEC 13 2017

NOTE "FAIR" INDICATES FEW OR NO CLOUDS BELOW 12,000 FEET
WITH NO SIGNIFICANT WEATHER AND/OR OBSTRUCTIONS TO VISIBILITY.

KYZ001>023-026-027-061>063-070>075-131200-
WESTERN AND SOUTH CENTRAL KENTUCKY

CITY           SKY/WX    TMP DP  RH WIND       PRES   REMARKS
PADUCAH        CLOUDY    28  11  48 S7        29.97F WCI  21
HENDERSON      CLOUDY    24  15  68 S7        29.98F WCI  16
OWENSBORO      CLOUDY    22  14  71 S5        29.98F WCI  16
HOPKINSVILLE   CLOUDY    25  11  55 S6        30.00F WCI  18
BOWLING GREEN  CLOUDY    22  11  62 S5        30.01F WCI  16
GLASGOW        NOT AVBL
$$

KYZ024-025-028>034-038-045-046-053-131200-
NORTH CENTRAL KENTUCKY

CITY           SKY/WX    TMP DP  RH WIND       PRES   REMARKS
LOUISVILLE/SDF CLOUDY    22  10  60 SE5       29.99R WCI  16
LOUISVILLE/LOU CLOUDY    21  10  62 SE3       30.00R
FORT KNOX      CLOUDY    19   9  65 CALM      29.96S
$$

KYZ035>037-039>044-047>052-055>060-089>105-131200-
NORTHEAST KENTUCKY

CITY           SKY/WX    TMP DP  RH WIND       PRES   REMARKS
LEXINGTON      CLOUDY    17   8  67 S6        29.97S WCI   9
COVINGTON      CLOUDY    18  10  71 S6        29.93F WCI  10
FRANKFORT      CLOUDY    17   8  67 SW3       29.96S
$$

KYZ054-064>069-076>088-106>120-131200-
SOUTHEAST KENTUCKY

CITY           SKY/WX    TMP DP  RH WIND       PRES   REMARKS
JACKSON        CLEAR     18   7  62 SW3       29.96S
LONDON         CLOUDY    18  11  74 CALM      29.99S
SOMERSET       CLOUDY    18  12  79 S6        30.02S WCI   9
MIDDLESBORO    CLOUDY    18  12  76 CALM      30.02S
MONTICELLO     CLOUDY    16  11  80 NW8       30.02F WCI   5
$$





USA.gov is the U.S. government's official web portal to all federal, state and local government web resources and services.